GW6247 Weather Reports


time (UTC)temp
F
wind
direction
speed
knots
gust
knots
rain 1hr
in
rain 24hr
in
rain mn
in
humidity
%
barometer
mb
20260506194514 69 82 1.7 6.1 0.00 0.00 0.00 41 1021.4
20260506193022 69 107 1.7 6.1 0.00 0.00 0.00 42 1021.5
20260506191509 68 46 3.5 5.2 0.00 0.00 0.00 39 1021.8
20260506190009 68 318 2.6 5.2 0.00 0.00 0.00 38 1021.8
20260506184508 67 328 1.7 4.3 0.00 0.00 0.00 43 1021.9
20260506183008 66 340 1.7 4.3 0.00 0.00 0.00 45 1021.9
20260506181504 66 319 2.6 5.2 0.00 0.00 0.00 49 1021.9
20260506180006 65 297 3.5 6.1 0.00 0.00 0.00 50 1021.9
20260506174509 64 309 3.5 7.0 0.00 0.00 0.00 50 1021.9
20260506173013 63 16 0.9 3.5 0.00 0.00 0.00 54 1021.8
20260506171510 62 15 1.7 4.3 0.00 0.00 0.00 54 1021.8
20260506170004 61 1 1.7 4.3 0.00 0.00 0.00 61 1021.8
20260506164507 59 359 0.9 3.5 0.00 0.00 0.00 63 1021.7
20260506163015 59 356 0.9 3.5 0.00 0.00 0.00 65 1021.7
20260506161513 57 297 0.9 2.6 0.00 0.00 0.00 66 1021.8
20260506160016 56 295 0.9 3.5 0.00 0.00 0.00 69 1021.7
20260506154504 55 285 0.9 2.6 0.00 0.00 0.00 70 1021.6
20260506153008 54 284 0.9 2.6 0.00 0.00 0.00 71 1021.5
20260506151512 53 256 0.0 0.0 0.00 0.00 0.00 74 1021.7
20260506150014 52 256 0.0 0.0 0.00 0.00 0.00 72 1021.6
20260506144516 50 256 0.0 0.9 0.00 0.00 0.00 79 1021.6
20260506143013 49 256 0.0 0.0 0.00 0.00 0.00 83 1021.4
20260506141508 47 256 0.0 0.0 0.00 0.00 0.00 85 1021.2
20260506140012 46 256 0.0 0.0 0.00 0.00 0.00 89 1021.0
20260506134517 43 256 0.0 0.0 0.00 0.00 0.00 91 1020.6
20260506133017 41 256 0.0 0.0 0.00 0.00 0.00 91 1020.4
20260506131504 41 256 0.0 2.6 0.00 0.00 0.00 90 1020.3
20260506130008 41 256 0.0 2.6 0.00 0.00 0.00 90 1020.0
20260506124512 41 256 0.0 0.0 0.00 0.00 0.00 90 1019.6
20260506123018 42 256 0.0 0.0 0.00 0.00 0.00 90 1019.5
20260506121518 42 256 0.0 0.0 0.00 0.00 0.00 89 1019.3
20260506120004 42 256 0.0 0.0 0.00 0.00 0.00 89 1019.1
20260506114510 42 256 0.0 0.0 0.00 0.00 0.00 89 1018.9
20260506113016 41 256 0.0 1.7 0.00 0.00 0.00 89 1018.8
20260506111526 42 256 0.9 1.7 0.00 0.00 0.00 87 1018.6
20260506110023 43 256 0.0 1.7 0.00 0.00 0.00 88 1018.4
20260506104518 43 256 1.7 2.6 0.00 0.01 0.00 87 1018.1
20260506103019 43 256 0.9 3.5 0.00 0.02 0.00 87 1018.0
20260506101514 44 256 0.9 2.6 0.00 0.02 0.00 86 1017.9
20260506100022 44 256 0.9 1.7 0.00 0.03 0.00 85 1017.7
20260506094505 44 256 0.9 2.6 0.00 0.06 0.00 85 1017.5
20260506093012 44 256 1.7 3.5 0.00 0.07 0.00 83 1017.5
20260506091515 45 257 1.7 2.6 0.00 0.07 0.00 83 1017.4
20260506090016 46 257 1.7 2.6 0.00 0.08 0.00 80 1017.3
20260506084520 48 257 0.0 2.6 0.00 0.09 0.00 79 1017.4
20260506083003 48 277 1.7 5.2 0.00 0.10 0.00 80 1017.3
20260506081508 48 271 1.7 4.3 0.00 0.11 0.00 79 1017.3
20260506073024 47 106 0.9 3.5 0.00 0.12 0.00 81 1016.7
20260506071508 48 89 0.0 2.6 0.00 0.12 0.00 79 1016.5
20260506061525 50 208 3.5 7.0 0.00 0.15 0.14 76 1016.7
20260506044511 50 226 1.7 2.6 0.00 0.21 0.14 74 1015.0
20260506043016 50 226 2.6 4.3 0.00 0.22 0.14 73 1014.8
20260506041519 51 113 1.7 3.5 0.00 0.23 0.14 72 1014.9
20260506040024 51 89 2.6 5.2 0.00 0.23 0.14 75 1014.7
20260506034528 51 73 2.6 3.5 0.00 0.24 0.14 76 1014.5
20260506033012 52 215 0.9 2.6 0.00 0.24 0.14 72 1014.2
20260506031517 53 215 1.7 3.5 0.00 0.24 0.14 70 1013.9
20260506030022 53 216 0.9 3.5 0.00 0.24 0.14 71 1013.8
20260506024526 54 217 0.9 2.6 0.00 0.24 0.14 69 1013.6
20260506023029 55 216 0.9 4.3 0.00 0.24 0.14 66 1013.5
20260506021514 57 216 1.7 3.5 0.00 0.24 0.14 63 1013.4
20260506020030 59 217 1.7 3.5 0.00 0.24 0.14 59 1013.3
20260506014525 62 186 1.7 4.3 0.00 0.24 0.14 51 1013.3
20260506013029 64 182 2.6 4.3 0.00 0.24 0.14 48 1013.3
20260506011509 64 39 0.9 2.6 0.00 0.25 0.14 45 1013.3
20260506010025 64 39 1.7 4.3 0.00 0.26 0.14 46 1013.3
20260506004509 64 39 2.6 4.3 0.00 0.26 0.14 46 1013.3
20260506003006 64 33 1.7 3.5 0.00 0.26 0.14 45 1013.3
20260506001512 64 349 0.9 4.3 0.00 0.26 0.14 48 1013.4
20260506000028 64 33 1.7 5.2 0.00 0.26 0.14 47 1013.5
20260505234522 63 21 2.6 6.1 0.00 0.26 0.14 52 1013.5
20260505233003 63 345 1.7 4.3 0.00 0.26 0.14 47 1013.5
20260505231513 63 2 1.7 4.3 0.00 0.26 0.14 47 1013.5
20260505230028 64 300 0.9 4.3 0.00 0.26 0.14 46 1013.7
20260505224516 64 225 2.6 6.1 0.00 0.26 0.14 49 1013.8
20260505223022 62 1 2.6 4.3 0.00 0.26 0.14 52 1014.0
20260505221508 62 288 1.7 5.2 0.00 0.26 0.14 54 1014.0
20260505220011 61 356 2.6 4.3 0.00 0.26 0.14 52 1014.1
20260505214520 60 360 2.6 5.2 0.00 0.26 0.14 57 1014.3
20260505213021 60 328 0.0 4.3 0.00 0.26 0.14 60 1014.5
20260505211530 59 320 0.9 4.3 0.00 0.26 0.14 61 1014.8
20260505210013 59 290 3.5 6.1 0.00 0.26 0.14 62 1014.9
20260505204511 58 273 2.6 4.3 0.00 0.26 0.14 67 1014.9
20260505203017 56 61 1.7 3.5 0.00 0.26 0.14 70 1015.0
20260505201520 55 25 0.9 3.5 0.00 0.26 0.14 74 1015.1
20260505200023 55 13 1.7 5.2 0.00 0.26 0.14 72 1015.2